Tracking 19219 objects as of 20-Jul-2018
HD Live streaming from Space Station
objects crossing your sky now

FENGYUN 1C DEB

Track FENGYUN 1C DEB now!
10-day predictions


NORAD ID: 30976
Int'l Code: 1999-025BBS
Perigee: 721.0 km
Apogee: 977.9 km
Inclination: 99.2 °
Period: 101.8 minutes
Semi major axis: 7220 km
RCS: 0.0086 m2 (small)
Launch date: May 10, 1999
Source: People's Republic of China (PRC)
Launch site: Taiyaun Space Center, China (TSC)

Note: This is SATELLITE DEBRIS
aabbcc
Your satellite tracking list
Your tracking list is empty




NASA's NSSDC Master Catalog

Two Line Element Set (TLE):
1 30976U 99025BBS 18200.01151420 +.00000692 +00000-0 +32691-3 0  9996
2 30976 099.1752 263.7456 0177900 108.5430 253.5161 14.14989817262485
Source of the keplerian elements: AFSPC